Time,TemperatureF,DewpointF,PressureIn,WindDirection,WindDirectionDegrees,WindSpeedMPH,WindSpeedGustMPH,Humidity,HourlyPrecipIn,Conditions,Clouds,dailyrainin,SoftwareType,DateUTC
2013-08-31 00:00:00,43.3,36.6,30.07,West,273,0.0,3.0,77,0.00,,---,0.05,VWS V14.01,2013-08-31 08:00:00,
2013-08-31 00:05:00,43.2,36.8,30.07,NW,307,1.0,1.0,78,0.00,,---,0.00,VWS V14.01,2013-08-31 08:05:00,
2013-08-31 00:10:00,43.1,36.1,30.07,SW,222,0.0,2.0,76,0.00,,---,0.00,VWS V14.01,2013-08-31 08:10:00,
2013-08-31 00:15:00,43.1,35.7,30.07,WSW,258,0.0,2.0,75,0.00,,---,0.00,VWS V14.01,2013-08-31 08:15:00,
2013-08-31 00:20:00,43.0,35.6,30.07,WNW,290,1.0,2.0,75,0.00,,---,0.00,VWS V14.01,2013-08-31 08:20:00,
2013-08-31 00:25:00,42.9,35.2,30.07,WNW,290,0.0,2.0,74,0.00,,---,0.00,VWS V14.01,2013-08-31 08:25:00,
2013-08-31 00:30:00,42.9,35.2,30.07,NW,309,0.0,2.0,74,0.00,,---,0.00,VWS V14.01,2013-08-31 08:30:00,
2013-08-31 00:35:00,42.8,35.1,30.07,NW,309,1.0,1.0,74,0.00,,---,0.00,VWS V14.01,2013-08-31 08:35:00,
2013-08-31 00:40:00,42.7,35.0,30.07,WNW,285,0.0,4.0,74,0.00,,---,0.00,VWS V14.01,2013-08-31 08:40:00,
2013-08-31 00:45:00,42.5,34.8,30.07,WNW,285,0.0,4.0,74,0.00,,---,0.00,VWS V14.01,2013-08-31 08:45:00,
2013-08-31 00:50:00,42.3,34.3,30.07,WNW,302,2.0,4.0,73,0.00,,---,0.00,VWS V14.01,2013-08-31 08:50:00,
2013-08-31 00:55:00,42.0,34.3,30.07,WSW,257,0.0,4.0,74,0.00,,---,0.00,VWS V14.01,2013-08-31 08:55:00,
2013-08-31 01:00:00,41.8,34.1,30.07,WSW,257,0.0,4.0,74,0.00,,---,0.00,VWS V14.01,2013-08-31 09:00:00,
2013-08-31 01:05:00,41.6,34.3,30.07,NW,315,0.0,2.0,75,0.00,,---,0.00,VWS V14.01,2013-08-31 09:05:00,
2013-08-31 01:10:00,41.3,34.0,30.07,NNW,347,0.0,3.0,75,0.00,,---,0.00,VWS V14.01,2013-08-31 09:10:00,
2013-08-31 01:15:00,41.1,33.8,30.07,WNW,300,0.0,5.0,75,0.00,,---,0.00,VWS V14.01,2013-08-31 09:15:00,
2013-08-31 01:20:00,40.9,33.6,30.08,NNW,327,0.0,5.0,75,0.00,,---,0.00,VWS V14.01,2013-08-31 09:20:00,
2013-08-31 01:25:00,40.8,33.8,30.07,NNW,336,0.0,5.0,76,0.00,,---,0.00,VWS V14.01,2013-08-31 09:25:00,
2013-08-31 01:30:00,40.6,33.3,30.08,NNW,336,0.0,5.0,75,0.00,,---,0.00,VWS V14.01,2013-08-31 09:30:00,
2013-08-31 01:35:00,40.5,33.5,30.07,NNW,346,0.0,3.0,76,0.00,,---,0.00,VWS V14.01,2013-08-31 09:35:00,
2013-08-31 01:40:00,40.4,33.5,30.07,North,9,0.0,4.0,76,0.00,,---,0.00,VWS V14.01,2013-08-31 09:40:00,
2013-08-31 01:45:00,40.3,33.7,30.07,North,10,4.0,4.0,77,0.00,,---,0.00,VWS V14.01,2013-08-31 09:45:00,
2013-08-31 01:50:00,40.3,33.3,30.07,ENE,63,0.0,4.0,76,0.00,,---,0.00,VWS V14.01,2013-08-31 09:50:00,
2013-08-31 01:55:00,40.2,33.2,30.07,North,360,1.0,4.0,76,0.00,,---,0.00,VWS V14.01,2013-08-31 09:55:00,
2013-08-31 02:00:00,40.2,33.6,30.07,ENE,58,0.0,4.0,77,0.00,,---,0.00,VWS V14.01,2013-08-31 10:00:00,
2013-08-31 02:05:00,40.2,33.2,30.08,NNE,24,0.0,5.0,76,0.00,,---,0.00,VWS V14.01,2013-08-31 10:05:00,
2013-08-31 02:10:00,40.2,33.6,30.08,NNE,13,0.0,5.0,77,0.00,,---,0.00,VWS V14.01,2013-08-31 10:10:00,
2013-08-31 02:15:00,40.1,33.2,30.08,NNE,20,2.0,5.0,76,0.00,,---,0.00,VWS V14.01,2013-08-31 10:15:00,
2013-08-31 02:20:00,40.1,33.5,30.08,North,5,0.0,5.0,77,0.00,,---,0.00,VWS V14.01,2013-08-31 10:20:00,
2013-08-31 02:25:00,40.0,33.4,30.08,NE,45,0.0,5.0,77,0.00,,---,0.00,VWS V14.01,2013-08-31 10:25:00,
2013-08-31 02:30:00,39.9,33.0,30.08,NNE,25,0.0,5.0,76,0.00,,---,0.00,VWS V14.01,2013-08-31 10:30:00,
2013-08-31 02:35:00,39.8,32.9,30.08,NNE,12,0.0,5.0,76,0.00,,---,0.00,VWS V14.01,2013-08-31 10:35:00,
2013-08-31 02:40:00,39.8,32.9,30.08,NNE,32,0.0,5.0,76,0.00,,---,0.00,VWS V14.01,2013-08-31 10:40:00,
2013-08-31 02:45:00,39.7,32.8,30.08,NE,45,1.0,5.0,76,0.00,,---,0.00,VWS V14.01,2013-08-31 10:45:00,
2013-08-31 02:50:00,39.7,32.8,30.08,NNE,28,3.0,5.0,76,0.00,,---,0.00,VWS V14.01,2013-08-31 10:50:00,
2013-08-31 02:55:00,39.6,33.0,30.08,NNE,30,0.0,5.0,77,0.00,,---,0.00,VWS V14.01,2013-08-31 10:55:00,
2013-08-31 03:00:00,39.5,32.9,30.08,North,11,0.0,5.0,77,0.00,,---,0.00,VWS V14.01,2013-08-31 11:00:00,
2013-08-31 03:05:00,39.5,32.9,30.08,NNW,348,0.0,4.0,77,0.00,,---,0.00,VWS V14.01,2013-08-31 11:05:00,
2013-08-31 03:10:00,39.4,32.8,30.08,NNE,17,0.0,4.0,77,0.00,,---,0.00,VWS V14.01,2013-08-31 11:10:00,
2013-08-31 03:15:00,39.3,32.7,30.08,North,5,2.0,4.0,77,0.00,,---,0.00,VWS V14.01,2013-08-31 11:15:00,
2013-08-31 03:20:00,39.3,32.4,30.08,NNW,328,0.0,4.0,76,0.00,,---,0.00,VWS V14.01,2013-08-31 11:20:00,
2013-08-31 03:25:00,39.3,32.7,30.08,NNE,15,0.0,4.0,77,0.00,,---,0.00,VWS V14.01,2013-08-31 11:25:00,
2013-08-31 03:30:00,39.2,32.3,30.08,NNE,19,2.0,5.0,76,0.00,,---,0.00,VWS V14.01,2013-08-31 11:30:00,
2013-08-31 03:35:00,39.2,32.0,30.08,NNE,17,4.0,5.0,75,0.00,,---,0.00,VWS V14.01,2013-08-31 11:35:00,
2013-08-31 03:40:00,39.2,32.0,30.08,NE,39,2.0,5.0,75,0.00,,---,0.00,VWS V14.01,2013-08-31 11:40:00,
2013-08-31 03:45:00,39.2,32.0,30.08,North,9,3.0,5.0,75,0.00,,---,0.00,VWS V14.01,2013-08-31 11:45:00,
2013-08-31 03:50:00,39.1,31.9,30.08,ENE,63,2.0,5.0,75,0.00,,---,0.00,VWS V14.01,2013-08-31 11:50:00,
2013-08-31 03:55:00,39.0,31.8,30.08,NNE,23,2.0,6.0,75,0.00,,---,0.00,VWS V14.01,2013-08-31 11:55:00,
2013-08-31 04:00:00,39.0,31.8,30.08,NNE,27,2.0,6.0,75,0.00,,---,0.00,VWS V14.01,2013-08-31 12:00:00,
2013-08-31 04:05:00,39.0,31.8,30.08,NNE,23,1.0,4.0,75,0.00,,---,0.00,VWS V14.01,2013-08-31 12:05:00,
2013-08-31 04:10:00,38.9,31.3,30.08,NNW,331,5.0,5.0,74,0.00,,---,0.00,VWS V14.01,2013-08-31 12:10:00,
2013-08-31 04:15:00,38.9,31.3,30.08,NNW,341,2.0,6.0,74,0.00,,---,0.00,VWS V14.01,2013-08-31 12:15:00,
2013-08-31 04:20:00,38.9,31.3,30.08,NNE,15,4.0,6.0,74,0.00,,---,0.00,VWS V14.01,2013-08-31 12:20:00,
2013-08-31 04:25:00,38.8,30.9,30.08,North,360,2.0,6.0,73,0.00,,---,0.00,VWS V14.01,2013-08-31 12:25:00,
2013-08-31 04:30:00,38.7,31.1,30.08,North,355,2.0,6.0,74,0.00,,---,0.00,VWS V14.01,2013-08-31 12:30:00,
2013-08-31 04:35:00,38.7,31.5,30.08,NNE,19,2.0,6.0,75,0.00,,---,0.00,VWS V14.01,2013-08-31 12:35:00,
2013-08-31 04:40:00,38.7,31.5,30.08,NE,46,2.0,7.0,75,0.00,,---,0.00,VWS V14.01,2013-08-31 12:40:00,
2013-08-31 04:45:00,38.7,31.5,30.08,North,351,1.0,7.0,75,0.00,,---,0.00,VWS V14.01,2013-08-31 12:45:00,
2013-08-31 04:50:00,38.6,31.4,30.08,NNW,329,1.0,7.0,75,0.00,,---,0.00,VWS V14.01,2013-08-31 12:50:00,
2013-08-31 04:55:00,38.6,31.0,30.08,North,355,2.0,8.0,74,0.00,,---,0.00,VWS V14.01,2013-08-31 12:55:00,
2013-08-31 04:59:00,38.7,31.1,30.08,North,5,2.0,8.0,74,0.00,,---,0.00,VWS V14.01,2013-08-31 12:59:00,
2013-08-31 05:00:00,38.6,30.7,30.08,NNW,333,2.0,8.0,73,0.00,,---,0.00,VWS V14.01,2013-08-31 13:00:00,
2013-08-31 05:04:00,38.6,31.0,30.08,NNE,15,2.0,4.0,74,0.00,,---,0.00,VWS V14.01,2013-08-31 13:04:00,
2013-08-31 05:09:00,38.6,30.7,30.08,NW,322,2.0,6.0,73,0.00,,---,0.00,VWS V14.01,2013-08-31 13:09:00,
2013-08-31 05:14:00,38.5,30.6,30.08,NNE,16,2.0,7.0,73,0.00,,---,0.00,VWS V14.01,2013-08-31 13:14:00,
2013-08-31 05:19:00,38.4,30.5,30.08,NE,46,2.0,7.0,73,0.00,,---,0.00,VWS V14.01,2013-08-31 13:19:00,
2013-08-31 05:24:00,38.3,30.4,30.08,WNW,300,1.0,7.0,73,0.00,,---,0.00,VWS V14.01,2013-08-31 13:24:00,
2013-08-31 05:29:00,38.3,30.4,30.08,NNW,346,1.0,7.0,73,0.00,,---,0.00,VWS V14.01,2013-08-31 13:29:00,
2013-08-31 05:30:00,38.3,30.4,30.08,NE,36,0.0,7.0,73,0.00,,---,0.00,VWS V14.01,2013-08-31 13:30:00,
2013-08-31 05:34:00,38.2,30.0,30.08,NE,46,0.0,6.0,72,0.00,,---,0.00,VWS V14.01,2013-08-31 13:34:00,
2013-08-31 05:39:00,38.3,30.1,30.08,NE,50,3.0,7.0,72,0.00,,---,0.00,VWS V14.01,2013-08-31 13:39:00,
2013-08-31 05:44:00,38.4,30.2,30.08,NE,36,2.0,7.0,72,0.00,,---,0.00,VWS V14.01,2013-08-31 13:44:00,
2013-08-31 05:49:00,38.4,29.8,30.08,NE,42,4.0,7.0,71,0.00,,---,0.00,VWS V14.01,2013-08-31 13:49:00,
2013-08-31 05:54:00,38.5,29.9,30.08,NNE,22,0.0,7.0,71,0.00,,---,0.00,VWS V14.01,2013-08-31 13:54:00,
2013-08-31 05:59:00,38.5,29.9,30.08,ENE,58,0.0,7.0,71,0.00,,---,0.00,VWS V14.01,2013-08-31 13:59:00,
2013-08-31 06:00:00,38.5,29.9,30.08,NNE,33,0.0,7.0,71,0.00,,---,0.00,VWS V14.01,2013-08-31 14:00:00,
2013-08-31 06:04:00,38.4,29.8,30.08,NNE,25,2.0,4.0,71,0.00,,---,0.00,VWS V14.01,2013-08-31 14:04:00,
2013-08-31 06:09:00,38.3,30.1,30.08,North,355,0.0,4.0,72,0.00,,---,0.00,VWS V14.01,2013-08-31 14:09:00,
2013-08-31 06:14:00,38.1,29.9,30.08,North,5,2.0,4.0,72,0.00,,---,0.00,VWS V14.01,2013-08-31 14:14:00,
2013-08-31 06:19:00,38.0,30.1,30.08,NE,51,1.0,5.0,73,0.00,,---,0.00,VWS V14.01,2013-08-31 14:19:00,
2013-08-31 06:24:00,37.9,30.4,30.08,NE,51,1.0,5.0,74,0.00,,---,0.00,VWS V14.01,2013-08-31 14:24:00,
2013-08-31 06:29:00,37.8,29.9,30.08,NE,51,0.0,5.0,73,0.00,,---,0.00,VWS V14.01,2013-08-31 14:29:00,
2013-08-31 06:30:00,37.8,30.3,30.08,NE,51,0.0,5.0,74,0.00,,---,0.00,VWS V14.01,2013-08-31 14:30:00,
2013-08-31 06:34:00,37.7,30.5,30.08,NE,51,0.0,0.0,75,0.00,,---,0.00,VWS V14.01,2013-08-31 14:34:00,
2013-08-31 06:39:00,37.7,30.5,30.08,NE,51,0.0,0.0,75,0.00,,---,0.00,VWS V14.01,2013-08-31 14:39:00,
2013-08-31 06:44:00,37.7,30.5,30.08,NE,51,0.0,0.0,75,0.00,,---,0.00,VWS V14.01,2013-08-31 14:44:00,
2013-08-31 06:49:00,37.6,29.7,30.08,NE,51,0.0,1.0,73,0.00,,---,0.00,VWS V14.01,2013-08-31 14:49:00,
2013-08-31 06:54:00,37.7,29.8,30.08,NE,51,0.0,1.0,73,0.00,,---,0.00,VWS V14.01,2013-08-31 14:54:00,
2013-08-31 06:59:00,37.7,29.8,30.08,NE,51,0.0,1.0,73,0.00,,---,0.00,VWS V14.01,2013-08-31 14:59:00,
2013-08-31 07:00:00,37.7,29.5,30.08,NE,51,0.0,1.0,72,0.00,,---,0.00,VWS V14.01,2013-08-31 15:00:00,
2013-08-31 07:04:00,37.8,29.6,30.08,NE,51,0.0,0.0,72,0.00,,---,0.00,VWS V14.01,2013-08-31 15:04:00,
2013-08-31 07:09:00,37.8,29.3,30.08,NE,51,0.0,0.0,71,0.00,,---,0.00,VWS V14.01,2013-08-31 15:09:00,
2013-08-31 07:14:00,37.9,29.4,30.08,NE,51,0.0,0.0,71,0.00,,---,0.00,VWS V14.01,2013-08-31 15:14:00,
2013-08-31 07:19:00,38.0,29.1,30.08,NE,51,0.0,0.0,70,0.00,,---,0.00,VWS V14.01,2013-08-31 15:19:00,
2013-08-31 07:24:00,38.1,29.5,30.08,NE,51,0.0,0.0,71,0.00,,---,0.00,VWS V14.01,2013-08-31 15:24:00,
2013-08-31 07:29:00,38.2,28.9,30.08,NE,51,0.0,0.0,69,0.00,,---,0.00,VWS V14.01,2013-08-31 15:29:00,
2013-08-31 07:30:00,38.3,29.4,30.08,NE,51,0.0,0.0,70,0.00,,---,0.00,VWS V14.01,2013-08-31 15:30:00,
2013-08-31 07:34:00,38.4,28.8,30.08,NE,51,0.0,0.0,68,0.00,,---,0.00,VWS V14.01,2013-08-31 15:34:00,
2013-08-31 07:39:00,38.6,28.6,30.08,NE,51,0.0,0.0,67,0.00,,---,0.00,VWS V14.01,2013-08-31 15:39:00,
2013-08-31 07:44:00,38.8,29.5,30.08,NE,51,0.0,0.0,69,0.00,,---,0.00,VWS V14.01,2013-08-31 15:44:00,
2013-08-31 07:49:00,38.8,29.5,30.08,NE,51,0.0,0.0,69,0.00,,---,0.00,VWS V14.01,2013-08-31 15:49:00,
2013-08-31 07:54:00,38.8,29.9,30.08,NE,51,0.0,0.0,70,0.00,,---,0.00,VWS V14.01,2013-08-31 15:54:00,
2013-08-31 07:59:00,38.8,30.6,30.08,NE,51,0.0,0.0,72,0.00,,---,0.00,VWS V14.01,2013-08-31 15:59:00,
2013-08-31 08:00:00,38.7,29.4,30.08,NE,51,1.0,1.0,69,0.00,,---,0.00,VWS V14.01,2013-08-31 16:00:00,
2013-08-31 08:04:00,38.7,29.8,30.08,North,5,1.0,2.0,70,0.00,,---,0.00,VWS V14.01,2013-08-31 16:04:00,
2013-08-31 08:09:00,38.7,30.1,30.08,North,5,0.0,2.0,71,0.00,,---,0.00,VWS V14.01,2013-08-31 16:09:00,
2013-08-31 08:14:00,38.6,30.0,30.08,North,5,3.0,3.0,71,0.00,,---,0.00,VWS V14.01,2013-08-31 16:14:00,
2013-08-31 08:19:00,38.4,30.5,30.08,North,351,1.0,3.0,73,0.00,,---,0.00,VWS V14.01,2013-08-31 16:19:00,
2013-08-31 08:24:00,38.3,30.4,30.08,NNW,348,1.0,3.0,73,0.00,,---,0.00,VWS V14.01,2013-08-31 16:24:00,
2013-08-31 08:29:00,38.2,30.0,30.08,NNW,340,1.0,3.0,72,0.00,,---,0.00,VWS V14.01,2013-08-31 16:29:00,
2013-08-31 08:30:00,38.1,29.5,30.08,NNW,340,2.0,3.0,71,0.00,,---,0.00,VWS V14.01,2013-08-31 16:30:00,
2013-08-31 08:34:00,38.2,30.0,30.08,NNW,340,2.0,2.0,72,0.00,,---,0.00,VWS V14.01,2013-08-31 16:34:00,
2013-08-31 08:39:00,38.4,29.5,30.08,NNE,28,1.0,3.0,70,0.00,,---,0.00,VWS V14.01,2013-08-31 16:39:00,
2013-08-31 08:44:00,38.6,30.0,30.08,NNE,27,1.0,3.0,71,0.00,,---,0.00,VWS V14.01,2013-08-31 16:44:00,
2013-08-31 08:49:00,38.6,30.4,30.09,NW,324,3.0,3.0,72,0.00,,---,0.00,VWS V14.01,2013-08-31 16:49:00,
2013-08-31 08:54:00,38.7,30.1,30.09,NNW,329,0.0,3.0,71,0.00,,---,0.00,VWS V14.01,2013-08-31 16:54:00,
2013-08-31 08:59:00,38.6,30.0,30.08,NNW,330,2.0,3.0,71,0.00,,---,0.00,VWS V14.01,2013-08-31 16:59:00,
2013-08-31 09:00:00,38.6,30.0,30.08,NNW,330,1.0,3.0,71,0.00,,---,0.00,VWS V14.01,2013-08-31 17:00:00,
2013-08-31 09:04:00,38.6,30.4,30.08,NNW,331,1.0,1.0,72,0.00,,---,0.00,VWS V14.01,2013-08-31 17:04:00,
2013-08-31 09:09:00,38.7,31.1,30.08,NW,325,2.0,4.0,74,0.00,,---,0.00,VWS V14.01,2013-08-31 17:09:00,
2013-08-31 09:14:00,38.7,31.5,30.08,NNW,337,1.0,4.0,75,0.00,,---,0.00,VWS V14.01,2013-08-31 17:14:00,
2013-08-31 09:19:00,38.7,30.8,30.08,North,355,1.0,4.0,73,0.00,,---,0.00,VWS V14.01,2013-08-31 17:19:00,
2013-08-31 09:24:00,38.8,31.2,30.08,NNW,346,2.0,4.0,74,0.00,,---,0.00,VWS V14.01,2013-08-31 17:24:00,
2013-08-31 09:29:00,38.8,30.9,30.08,NNW,345,1.0,5.0,73,0.00,,---,0.00,VWS V14.01,2013-08-31 17:29:00,
2013-08-31 09:30:00,38.8,30.9,30.08,NNW,337,2.0,5.0,73,0.00,,---,0.00,VWS V14.01,2013-08-31 17:30:00,
2013-08-31 09:34:00,38.8,30.9,30.08,NNE,19,0.0,3.0,73,0.00,,---,0.00,VWS V14.01,2013-08-31 17:34:00,
2013-08-31 09:39:00,38.9,31.0,30.08,NW,320,1.0,4.0,73,0.00,,---,0.00,VWS V14.01,2013-08-31 17:39:00,
2013-08-31 09:44:00,38.9,31.3,30.08,North,355,0.0,4.0,74,0.00,,---,0.00,VWS V14.01,2013-08-31 17:44:00,
2013-08-31 09:49:00,38.9,31.0,30.08,NNW,340,1.0,4.0,73,0.00,,---,0.00,VWS V14.01,2013-08-31 17:49:00,
2013-08-31 09:54:00,39.0,31.4,30.08,NNW,329,0.0,4.0,74,0.00,,---,0.00,VWS V14.01,2013-08-31 17:54:00,
2013-08-31 09:59:00,39.1,31.5,30.08,NNW,344,0.0,4.0,74,0.00,,---,0.00,VWS V14.01,2013-08-31 17:59:00,
2013-08-31 10:00:00,39.2,31.3,30.08,NNW,328,0.0,4.0,73,0.00,,---,0.00,VWS V14.01,2013-08-31 18:00:00,
2013-08-31 10:04:00,39.3,31.4,30.08,NNW,342,1.0,5.0,73,0.00,,---,0.00,VWS V14.01,2013-08-31 18:04:00,
2013-08-31 10:09:00,39.3,30.0,30.08,WNW,286,1.0,5.0,69,0.00,,---,0.00,VWS V14.01,2013-08-31 18:09:00,
2013-08-31 10:14:00,39.5,29.8,30.08,WNW,294,1.0,5.0,68,0.00,,---,0.00,VWS V14.01,2013-08-31 18:14:00,
2013-08-31 10:19:00,39.7,30.4,30.08,North,355,0.0,5.0,69,0.00,,---,0.00,VWS V14.01,2013-08-31 18:19:00,
2013-08-31 10:24:00,39.8,30.1,30.08,North,355,0.0,5.0,68,0.00,,---,0.00,VWS V14.01,2013-08-31 18:24:00,
2013-08-31 10:28:00,40.0,29.9,30.08,North,5,0.0,5.0,67,0.00,,---,0.00,VWS V14.01,2013-08-31 18:28:00,
2013-08-31 10:30:00,40.0,29.9,30.08,North,5,0.0,5.0,67,0.00,,---,0.00,VWS V14.01,2013-08-31 18:30:00,
2013-08-31 10:33:00,40.1,30.0,30.08,North,5,0.0,0.0,67,0.00,,---,0.00,VWS V14.01,2013-08-31 18:33:00,
2013-08-31 10:38:00,40.2,30.1,30.08,North,5,0.0,2.0,67,0.00,,---,0.00,VWS V14.01,2013-08-31 18:38:00,
2013-08-31 10:43:00,40.4,30.0,30.08,North,5,0.0,2.0,66,0.00,,---,0.00,VWS V14.01,2013-08-31 18:43:00,
2013-08-31 10:48:00,40.6,30.1,30.08,North,5,0.0,2.0,66,0.00,,---,0.00,VWS V14.01,2013-08-31 18:48:00,
2013-08-31 10:53:00,40.9,30.4,30.08,North,5,0.0,2.0,66,0.00,,---,0.00,VWS V14.01,2013-08-31 18:53:00,
2013-08-31 10:58:00,41.3,31.5,30.08,North,5,0.0,2.0,68,0.00,,---,0.00,VWS V14.01,2013-08-31 18:58:00,
2013-08-31 11:00:00,41.5,31.0,30.08,North,5,0.0,2.0,66,0.00,,---,0.00,VWS V14.01,2013-08-31 19:00:00,
2013-08-31 11:03:00,41.6,32.6,30.08,North,5,0.0,0.0,70,0.00,,---,0.00,VWS V14.01,2013-08-31 19:03:00,
2013-08-31 11:08:00,41.9,34.2,30.08,North,5,1.0,1.0,74,0.00,,---,0.00,VWS V14.01,2013-08-31 19:08:00,
2013-08-31 11:13:00,42.0,34.0,30.08,North,5,0.0,1.0,73,0.00,,---,0.00,VWS V14.01,2013-08-31 19:13:00,
2013-08-31 11:18:00,42.0,34.3,30.08,North,5,0.0,1.0,74,0.00,,---,0.00,VWS V14.01,2013-08-31 19:18:00,
2013-08-31 11:23:00,41.9,33.9,30.08,SSW,209,1.0,2.0,73,0.00,,---,0.00,VWS V14.01,2013-08-31 19:23:00,
2013-08-31 11:28:00,41.6,33.9,30.08,SSW,194,2.0,2.0,74,0.00,,---,0.00,VWS V14.01,2013-08-31 19:28:00,
2013-08-31 11:30:00,41.4,33.8,30.08,South,191,0.0,2.0,74,0.00,,---,0.00,VWS V14.01,2013-08-31 19:30:00,
2013-08-31 11:33:00,41.4,33.8,30.08,South,191,0.0,1.0,74,0.00,,---,0.00,VWS V14.01,2013-08-31 19:33:00,
2013-08-31 11:38:00,41.3,34.3,30.08,South,191,1.0,3.0,76,0.00,,---,0.00,VWS V14.01,2013-08-31 19:38:00,
2013-08-31 11:43:00,41.4,34.4,30.08,South,181,3.0,3.0,76,0.00,,---,0.00,VWS V14.01,2013-08-31 19:43:00,
2013-08-31 11:48:00,41.5,33.8,30.08,South,181,1.0,3.0,74,0.00,,---,0.00,VWS V14.01,2013-08-31 19:48:00,
2013-08-31 11:53:00,41.5,33.8,30.08,South,174,4.0,4.0,74,0.00,,---,0.00,VWS V14.01,2013-08-31 19:53:00,
2013-08-31 11:58:00,41.5,33.8,30.08,South,174,0.0,4.0,74,0.00,,---,0.00,VWS V14.01,2013-08-31 19:58:00,
2013-08-31 12:00:00,41.6,33.9,30.08,South,174,0.0,4.0,74,0.00,,---,0.00,VWS V14.01,2013-08-31 20:00:00,
2013-08-31 12:03:00,41.6,33.9,30.08,South,174,1.0,1.0,74,0.00,,---,0.00,VWS V14.01,2013-08-31 20:03:00,
2013-08-31 12:08:00,41.6,33.6,30.08,South,174,0.0,2.0,73,0.00,,---,0.00,VWS V14.01,2013-08-31 20:08:00,
2013-08-31 12:13:00,41.7,33.7,30.08,South,174,1.0,2.0,73,0.00,,---,0.00,VWS V14.01,2013-08-31 20:13:00,
2013-08-31 12:18:00,41.8,33.5,30.08,SSE,148,0.0,4.0,72,0.00,,---,0.00,VWS V14.01,2013-08-31 20:18:00,
2013-08-31 12:23:00,41.8,33.1,30.08,SSE,161,1.0,4.0,71,0.00,,---,0.00,VWS V14.01,2013-08-31 20:23:00,
2013-08-31 12:28:00,41.9,32.1,30.08,SSE,161,0.0,4.0,68,0.00,,---,0.00,VWS V14.01,2013-08-31 20:28:00,
2013-08-31 12:30:00,41.9,31.8,30.08,SSE,161,0.0,4.0,67,0.00,,---,0.00,VWS V14.01,2013-08-31 20:30:00,
2013-08-31 12:33:00,42.0,31.9,30.08,SSE,161,0.0,0.0,67,0.00,,---,0.00,VWS V14.01,2013-08-31 20:33:00,
2013-08-31 12:38:00,42.4,33.3,30.08,SSE,161,1.0,2.0,70,0.00,,---,0.00,VWS V14.01,2013-08-31 20:38:00,
2013-08-31 12:43:00,43.0,32.4,30.08,SSE,163,2.0,2.0,66,0.00,,---,0.00,VWS V14.01,2013-08-31 20:43:00,
2013-08-31 12:48:00,43.2,33.0,30.08,South,175,0.0,4.0,67,0.00,,---,0.00,VWS V14.01,2013-08-31 20:48:00,
2013-08-31 12:53:00,43.3,32.3,30.08,South,175,0.0,4.0,65,0.00,,---,0.00,VWS V14.01,2013-08-31 20:53:00,
2013-08-31 12:58:00,43.3,33.1,30.08,South,175,0.0,4.0,67,0.00,,---,0.00,VWS V14.01,2013-08-31 20:58:00,
2013-08-31 13:00:00,43.6,32.6,30.08,South,175,0.0,4.0,65,0.00,,---,0.00,VWS V14.01,2013-08-31 21:00:00,
2013-08-31 13:03:00,43.8,32.8,30.08,South,175,0.0,2.0,65,0.00,,---,0.00,VWS V14.01,2013-08-31 21:03:00,
2013-08-31 13:08:00,44.0,31.0,30.08,South,175,0.0,2.0,60,0.00,,---,0.00,VWS V14.01,2013-08-31 21:08:00,
2013-08-31 13:13:00,44.1,30.7,30.08,South,175,0.0,2.0,59,0.00,,---,0.00,VWS V14.01,2013-08-31 21:13:00,
2013-08-31 13:18:00,44.1,31.1,30.08,SSW,200,0.0,5.0,60,0.00,,---,0.00,VWS V14.01,2013-08-31 21:18:00,
2013-08-31 13:23:00,44.3,30.9,30.08,SSW,192,0.0,5.0,59,0.00,,---,0.00,VWS V14.01,2013-08-31 21:23:00,
2013-08-31 13:28:00,44.4,30.1,30.07,West,277,0.0,5.0,57,0.00,,---,0.00,VWS V14.01,2013-08-31 21:28:00,
2013-08-31 13:30:00,44.6,30.3,30.08,SW,229,1.0,5.0,57,0.00,,---,0.00,VWS V14.01,2013-08-31 21:30:00,
2013-08-31 13:33:00,44.6,30.8,30.08,WSW,246,0.0,2.0,58,0.00,,---,0.00,VWS V14.01,2013-08-31 21:33:00,
2013-08-31 13:38:00,44.6,30.3,30.07,WSW,246,2.0,2.0,57,0.00,,---,0.00,VWS V14.01,2013-08-31 21:38:00,
2013-08-31 13:43:00,44.8,30.1,30.07,WNW,291,0.0,2.0,56,0.00,,---,0.00,VWS V14.01,2013-08-31 21:43:00,
2013-08-31 13:48:00,45.1,28.5,30.08,WNW,290,0.0,2.0,52,0.00,,---,0.00,VWS V14.01,2013-08-31 21:48:00,
2013-08-31 13:53:00,45.4,29.3,30.08,WSW,253,0.0,2.0,53,0.00,,---,0.00,VWS V14.01,2013-08-31 21:53:00,
2013-08-31 13:58:00,45.6,28.0,30.08,WSW,253,0.0,2.0,50,0.00,,---,0.00,VWS V14.01,2013-08-31 21:58:00,
2013-08-31 14:00:00,45.8,28.7,30.08,ESE,118,1.0,3.0,51,0.00,,---,0.00,VWS V14.01,2013-08-31 22:00:00,
2013-08-31 14:03:00,45.8,28.2,30.08,SSE,151,0.0,4.0,50,0.00,,---,0.00,VWS V14.01,2013-08-31 22:03:00,
2013-08-31 14:08:00,46.1,29.9,30.08,SSE,151,2.0,4.0,53,0.00,,---,0.00,VWS V14.01,2013-08-31 22:08:00,
2013-08-31 14:13:00,46.1,26.0,30.07,NW,325,0.0,4.0,45,0.00,,---,0.00,VWS V14.01,2013-08-31 22:13:00,
2013-08-31 14:18:00,46.0,24.8,30.07,West,267,0.0,4.0,43,0.00,,---,0.00,VWS V14.01,2013-08-31 22:18:00,
2013-08-31 14:23:00,46.0,26.9,30.07,West,267,0.0,4.0,47,0.00,,---,0.00,VWS V14.01,2013-08-31 22:23:00,
2013-08-31 14:28:00,46.2,27.1,30.07,NW,313,0.0,4.0,47,0.00,,---,0.00,VWS V14.01,2013-08-31 22:28:00,
2013-08-31 14:30:00,46.3,24.5,30.07,NW,313,0.0,4.0,42,0.00,,---,0.00,VWS V14.01,2013-08-31 22:30:00,
2013-08-31 14:33:00,46.2,23.8,30.07,NW,313,0.0,1.0,41,0.00,,---,0.00,VWS V14.01,2013-08-31 22:33:00,
2013-08-31 14:38:00,46.4,25.7,30.07,West,261,0.0,2.0,44,0.00,,---,0.00,VWS V14.01,2013-08-31 22:38:00,
2013-08-31 14:43:00,46.5,24.1,30.07,North,355,0.0,3.0,41,0.00,,---,0.00,VWS V14.01,2013-08-31 22:43:00,
2013-08-31 14:48:00,46.4,24.0,30.07,South,188,1.0,3.0,41,0.00,,---,0.00,VWS V14.01,2013-08-31 22:48:00,
2013-08-31 14:53:00,46.1,26.5,30.07,SSW,205,0.0,3.0,46,0.00,,---,0.00,VWS V14.01,2013-08-31 22:53:00,
2013-08-31 14:58:00,46.3,23.9,30.07,SSW,205,0.0,3.0,41,0.00,,---,0.00,VWS V14.01,2013-08-31 22:58:00,
2013-08-31 15:00:00,46.3,23.9,30.06,SSW,199,0.0,3.0,41,0.00,,---,0.00,VWS V14.01,2013-08-31 23:00:00,
2013-08-31 15:03:00,46.3,25.0,30.07,West,280,2.0,2.0,43,0.00,,---,0.00,VWS V14.01,2013-08-31 23:03:00,
2013-08-31 15:08:00,46.2,21.4,30.06,North,355,0.0,4.0,37,0.00,,---,0.00,VWS V14.01,2013-08-31 23:08:00,
2013-08-31 15:13:00,46.3,21.5,30.06,North,355,0.0,4.0,37,0.00,,---,0.00,VWS V14.01,2013-08-31 23:13:00,
2013-08-31 15:18:00,46.5,20.3,30.06,North,355,0.0,4.0,35,0.00,,---,0.00,VWS V14.01,2013-08-31 23:18:00,
2013-08-31 15:23:00,46.8,20.6,30.06,ESE,123,2.0,4.0,35,0.00,,---,0.00,VWS V14.01,2013-08-31 23:23:00,
2013-08-31 15:28:00,46.8,20.6,30.06,SSE,167,0.0,4.0,35,0.00,,---,0.00,VWS V14.01,2013-08-31 23:28:00,
2013-08-31 15:30:00,46.9,22.0,30.06,SSE,167,1.0,4.0,37,0.00,,---,0.00,VWS V14.01,2013-08-31 23:30:00,
2013-08-31 15:33:00,46.9,22.0,30.06,South,170,2.0,4.0,37,0.00,,---,0.00,VWS V14.01,2013-08-31 23:33:00,
2013-08-31 15:38:00,46.6,22.4,30.06,South,175,4.0,4.0,38,0.00,,---,0.00,VWS V14.01,2013-08-31 23:38:00,
2013-08-31 15:43:00,46.8,23.2,30.06,South,175,0.0,4.0,39,0.00,,---,0.00,VWS V14.01,2013-08-31 23:43:00,
2013-08-31 15:48:00,46.9,23.9,30.06,SW,229,0.0,4.0,40,0.00,,---,0.00,VWS V14.01,2013-08-31 23:48:00,
2013-08-31 15:53:00,46.4,20.9,30.06,SSE,160,0.0,4.0,36,0.00,,---,0.00,VWS V14.01,2013-08-31 23:53:00,
2013-08-31 15:58:00,46.2,22.6,30.06,SSE,160,0.0,4.0,39,0.00,,---,0.00,VWS V14.01,2013-08-31 23:58:00,
2013-08-31 16:00:00,46.5,23.5,30.05,SSE,160,0.0,4.0,40,0.00,,---,0.00,VWS V14.01,2013-09-01 00:00:00,
2013-08-31 16:03:00,46.5,23.5,30.05,SSE,160,1.0,1.0,40,0.00,,---,0.00,VWS V14.01,2013-09-01 00:03:00,
2013-08-31 16:08:00,46.7,22.5,30.06,SSE,155,0.0,2.0,38,0.00,,---,0.00,VWS V14.01,2013-09-01 00:08:00,
2013-08-31 16:13:00,46.7,22.5,30.05,WSW,252,0.0,3.0,38,0.00,,---,0.00,VWS V14.01,2013-09-01 00:13:00,
2013-08-31 16:18:00,46.7,26.0,30.05,SW,228,1.0,3.0,44,0.00,,---,0.00,VWS V14.01,2013-09-01 00:18:00,
2013-08-31 16:23:00,46.5,26.9,30.05,SSW,213,0.0,3.0,46,0.00,,---,0.00,VWS V14.01,2013-09-01 00:23:00,
2013-08-31 16:28:00,46.3,26.7,30.05,SSE,166,0.0,4.0,46,0.00,,---,0.00,VWS V14.01,2013-09-01 00:28:00,
2013-08-31 16:30:00,46.2,27.1,30.05,SSE,159,0.0,4.0,47,0.00,,---,0.00,VWS V14.01,2013-09-01 00:30:00,
2013-08-31 16:33:00,46.1,27.5,30.05,SSE,159,0.0,0.0,48,0.00,,---,0.00,VWS V14.01,2013-09-01 00:33:00,
2013-08-31 16:37:00,46.1,27.5,30.05,SSE,159,0.0,2.0,48,0.00,,---,0.00,VWS V14.01,2013-09-01 00:37:00,
2013-08-31 16:42:00,46.0,27.4,30.05,SSE,161,2.0,4.0,48,0.00,,---,0.00,VWS V14.01,2013-09-01 00:42:00,
2013-08-31 16:47:00,45.8,26.7,30.05,SSE,161,0.0,4.0,47,0.00,,---,0.00,VWS V14.01,2013-09-01 00:47:00,
2013-08-31 16:52:00,45.8,27.7,30.05,SSE,164,1.0,4.0,49,0.00,,---,0.00,VWS V14.01,2013-09-01 00:52:00,
2013-08-31 16:57:00,45.6,28.5,30.06,South,177,1.0,4.0,51,0.00,,---,0.00,VWS V14.01,2013-09-01 00:57:00,
2013-08-31 17:00:00,45.4,28.4,30.05,South,178,0.0,4.0,51,0.00,,---,0.00,VWS V14.01,2013-09-01 01:00:00,
2013-08-31 17:02:00,45.4,28.8,30.06,South,178,0.0,2.0,52,0.00,,---,0.00,VWS V14.01,2013-09-01 01:02:00,
2013-08-31 17:07:00,45.2,29.1,30.06,South,178,0.0,2.0,53,0.00,,---,0.00,VWS V14.01,2013-09-01 01:07:00,
2013-08-31 17:12:00,45.1,29.0,30.05,South,178,0.0,2.0,53,0.00,,---,0.00,VWS V14.01,2013-09-01 01:12:00,
2013-08-31 17:17:00,45.0,28.9,30.05,South,170,0.0,4.0,53,0.00,,---,0.00,VWS V14.01,2013-09-01 01:17:00,
2013-08-31 17:22:00,44.9,29.7,30.05,South,170,1.0,4.0,55,0.00,,---,0.00,VWS V14.01,2013-09-01 01:22:00,
2013-08-31 17:27:00,44.9,28.8,30.05,South,170,0.0,4.0,53,0.00,,---,0.00,VWS V14.01,2013-09-01 01:27:00,
2013-08-31 17:30:00,44.8,29.2,30.05,South,170,0.0,4.0,54,0.00,,---,0.00,VWS V14.01,2013-09-01 01:30:00,
2013-08-31 17:32:00,44.8,29.2,30.05,South,170,1.0,1.0,54,0.00,,---,0.00,VWS V14.01,2013-09-01 01:32:00,
2013-08-31 17:37:00,44.8,28.7,30.05,South,170,0.0,2.0,53,0.00,,---,0.00,VWS V14.01,2013-09-01 01:37:00,
2013-08-31 17:42:00,44.7,29.5,30.05,SSE,160,0.0,4.0,55,0.00,,---,0.00,VWS V14.01,2013-09-01 01:42:00,
2013-08-31 17:47:00,44.8,29.6,30.05,SSE,160,0.0,4.0,55,0.00,,---,0.00,VWS V14.01,2013-09-01 01:47:00,
2013-08-31 17:52:00,44.8,29.6,30.05,SSE,160,0.0,4.0,55,0.00,,---,0.00,VWS V14.01,2013-09-01 01:52:00,
2013-08-31 17:57:00,44.8,29.2,30.05,SSE,160,0.0,4.0,54,0.00,,---,0.00,VWS V14.01,2013-09-01 01:57:00,
2013-08-31 18:00:00,44.8,29.2,30.05,SSE,160,0.0,4.0,54,0.00,,---,0.00,VWS V14.01,2013-09-01 02:00:00,
2013-08-31 18:02:00,44.8,29.6,30.05,SSE,160,0.0,0.0,55,0.00,,---,0.00,VWS V14.01,2013-09-01 02:02:00,
2013-08-31 18:07:00,44.8,29.6,30.05,SSE,160,0.0,0.0,55,0.00,,---,0.00,VWS V14.01,2013-09-01 02:07:00,
2013-08-31 18:12:00,44.7,29.1,30.05,SSE,160,0.0,0.0,54,0.00,,---,0.00,VWS V14.01,2013-09-01 02:12:00,
2013-08-31 18:17:00,44.7,29.5,30.05,SSE,160,0.0,0.0,55,0.00,,---,0.00,VWS V14.01,2013-09-01 02:17:00,
2013-08-31 18:22:00,44.7,29.5,30.05,SSE,160,0.0,1.0,55,0.00,,---,0.00,VWS V14.01,2013-09-01 02:22:00,
2013-08-31 18:27:00,44.8,29.2,30.05,SSE,160,0.0,1.0,54,0.00,,---,0.00,VWS V14.01,2013-09-01 02:27:00,
2013-08-31 18:30:00,44.8,29.2,30.05,SSE,160,0.0,1.0,54,0.00,,---,0.00,VWS V14.01,2013-09-01 02:30:00,
2013-08-31 18:32:00,44.8,29.2,30.05,SSE,160,0.0,0.0,54,0.00,,---,0.00,VWS V14.01,2013-09-01 02:32:00,
2013-08-31 18:37:00,44.8,29.6,30.05,SSE,160,0.0,0.0,55,0.00,,---,0.00,VWS V14.01,2013-09-01 02:37:00,
2013-08-31 18:42:00,44.8,29.6,30.05,SSE,160,0.0,0.0,55,0.00,,---,0.00,VWS V14.01,2013-09-01 02:42:00,
2013-08-31 18:47:00,44.8,28.7,30.05,SSE,160,0.0,0.0,53,0.00,,---,0.00,VWS V14.01,2013-09-01 02:47:00,
2013-08-31 18:52:00,44.7,29.5,30.05,SSE,160,0.0,0.0,55,0.00,,---,0.00,VWS V14.01,2013-09-01 02:52:00,
2013-08-31 18:57:00,44.6,30.3,30.04,SSE,160,0.0,0.0,57,0.00,,---,0.00,VWS V14.01,2013-09-01 02:57:00,
2013-08-31 19:00:00,44.6,30.8,30.04,SSE,160,0.0,0.0,58,0.00,,---,0.00,VWS V14.01,2013-09-01 03:00:00,
2013-08-31 19:02:00,44.6,31.6,30.04,SSE,160,0.0,0.0,60,0.00,,---,0.00,VWS V14.01,2013-09-01 03:02:00,
2013-08-31 19:07:00,44.6,31.6,30.04,SSE,160,0.0,0.0,60,0.00,,---,0.00,VWS V14.01,2013-09-01 03:07:00,
2013-08-31 19:12:00,44.6,31.6,30.04,SSE,160,0.0,0.0,60,0.00,,---,0.00,VWS V14.01,2013-09-01 03:12:00,
2013-08-31 19:17:00,44.6,31.2,30.04,SSE,160,0.0,0.0,59,0.00,,---,0.00,VWS V14.01,2013-09-01 03:17:00,
2013-08-31 19:22:00,44.5,31.1,30.04,SSE,160,0.0,0.0,59,0.00,,---,0.00,VWS V14.01,2013-09-01 03:22:00,
2013-08-31 19:27:00,44.5,31.9,30.04,SSE,160,0.0,0.0,61,0.00,,---,0.00,VWS V14.01,2013-09-01 03:27:00,
2013-08-31 19:30:00,44.3,32.1,30.04,SSE,160,0.0,0.0,62,0.00,,---,0.00,VWS V14.01,2013-09-01 03:30:00,
2013-08-31 19:32:00,44.3,32.1,30.04,SSE,160,0.0,0.0,62,0.00,,---,0.00,VWS V14.01,2013-09-01 03:32:00,
2013-08-31 19:37:00,44.0,32.6,30.04,SSE,160,0.0,0.0,64,0.00,,---,0.00,VWS V14.01,2013-09-01 03:37:00,
2013-08-31 19:42:00,43.8,32.4,30.04,SSE,160,0.0,0.0,64,0.00,,---,0.00,VWS V14.01,2013-09-01 03:42:00,
2013-08-31 19:47:00,43.6,32.2,30.04,SSE,160,0.0,0.0,64,0.00,,---,0.00,VWS V14.01,2013-09-01 03:47:00,
2013-08-31 19:52:00,43.5,32.2,30.04,SSE,160,0.0,0.0,64,0.00,,---,0.00,VWS V14.01,2013-09-01 03:52:00,
2013-08-31 19:57:00,43.4,33.2,30.04,SSE,160,0.0,0.0,67,0.00,,---,0.00,VWS V14.01,2013-09-01 03:57:00,
2013-08-31 20:00:00,43.3,32.0,30.03,SSE,160,0.0,0.0,64,0.00,,---,0.00,VWS V14.01,2013-09-01 04:00:00,
2013-08-31 20:01:00,43.4,32.4,30.03,SSE,160,0.0,0.0,65,0.00,,---,0.00,VWS V14.01,2013-09-01 04:01:00,
2013-08-31 20:06:00,43.3,33.1,30.04,SSE,160,0.0,0.0,67,0.00,,---,0.00,VWS V14.01,2013-09-01 04:06:00,
2013-08-31 20:11:00,43.2,32.6,30.03,SSE,160,0.0,0.0,66,0.00,,---,0.00,VWS V14.01,2013-09-01 04:11:00,
2013-08-31 20:16:00,43.1,33.3,30.03,SSE,160,0.0,0.0,68,0.00,,---,0.00,VWS V14.01,2013-09-01 04:16:00,
2013-08-31 20:21:00,42.8,32.6,30.03,SSE,160,0.0,0.0,67,0.00,,---,0.00,VWS V14.01,2013-09-01 04:21:00,
2013-08-31 20:26:00,42.6,32.4,30.04,SSE,160,0.0,0.0,67,0.00,,---,0.00,VWS V14.01,2013-09-01 04:26:00,
2013-08-31 20:30:00,42.3,31.8,30.04,SSE,160,0.0,0.0,66,0.00,,---,0.00,VWS V14.01,2013-09-01 04:30:00,
2013-08-31 20:31:00,42.3,31.8,30.04,SSE,160,0.0,0.0,66,0.00,,---,0.00,VWS V14.01,2013-09-01 04:31:00,
2013-08-31 20:36:00,42.2,31.7,30.04,SSE,160,0.0,0.0,66,0.00,,---,0.00,VWS V14.01,2013-09-01 04:36:00,
2013-08-31 20:41:00,42.1,32.0,30.04,SSE,160,0.0,0.0,67,0.00,,---,0.00,VWS V14.01,2013-09-01 04:41:00,
2013-08-31 20:46:00,42.0,31.9,30.04,SSE,160,0.0,0.0,67,0.00,,---,0.00,VWS V14.01,2013-09-01 04:46:00,
2013-08-31 20:51:00,41.9,31.8,30.04,SSE,160,0.0,0.0,67,0.00,,---,0.00,VWS V14.01,2013-09-01 04:51:00,
2013-08-31 20:56:00,41.9,31.8,30.04,SSE,160,0.0,0.0,67,0.00,,---,0.00,VWS V14.01,2013-09-01 04:56:00,
2013-08-31 21:00:00,41.8,32.0,30.04,SSE,160,0.0,0.0,68,0.00,,---,0.00,VWS V14.01,2013-09-01 05:00:00,
2013-08-31 21:01:00,41.8,32.0,30.04,SSE,160,0.0,0.0,68,0.00,,---,0.00,VWS V14.01,2013-09-01 05:01:00,
2013-08-31 21:06:00,41.7,32.3,30.04,SSE,160,0.0,0.0,69,0.00,,---,0.00,VWS V14.01,2013-09-01 05:06:00,
2013-08-31 21:11:00,41.6,32.6,30.04,SSE,160,0.0,0.0,70,0.00,,---,0.00,VWS V14.01,2013-09-01 05:11:00,
2013-08-31 21:16:00,41.6,32.9,30.04,SSE,160,0.0,0.0,71,0.00,,---,0.00,VWS V14.01,2013-09-01 05:16:00,
2013-08-31 21:21:00,41.5,33.5,30.04,SSE,160,0.0,0.0,73,0.00,,---,0.00,VWS V14.01,2013-09-01 05:21:00,
2013-08-31 21:26:00,41.4,33.8,30.04,SSE,160,0.0,0.0,74,0.00,,---,0.00,VWS V14.01,2013-09-01 05:26:00,
2013-08-31 21:30:00,41.3,34.0,30.04,SSE,160,0.0,0.0,75,0.00,,---,0.00,VWS V14.01,2013-09-01 05:30:00,
2013-08-31 21:31:00,41.3,34.0,30.04,SSE,160,0.0,0.0,75,0.00,,---,0.00,VWS V14.01,2013-09-01 05:31:00,
2013-08-31 21:36:00,41.3,34.0,30.04,SSE,160,0.0,0.0,75,0.00,,---,0.00,VWS V14.01,2013-09-01 05:36:00,
2013-08-31 21:41:00,41.2,34.2,30.04,SSE,160,0.0,0.0,76,0.00,,---,0.00,VWS V14.01,2013-09-01 05:41:00,
2013-08-31 21:46:00,41.2,34.2,30.04,SSE,160,0.0,0.0,76,0.00,,---,0.00,VWS V14.01,2013-09-01 05:46:00,
2013-08-31 21:51:00,41.1,34.5,30.04,SSE,160,0.0,0.0,77,0.00,,---,0.00,VWS V14.01,2013-09-01 05:51:00,
2013-08-31 21:56:00,41.1,34.5,30.04,SSE,160,0.0,0.0,77,0.00,,---,0.00,VWS V14.01,2013-09-01 05:56:00,
2013-08-31 22:00:00,41.0,34.7,30.04,SSE,160,0.0,0.0,78,0.00,,---,0.00,VWS V14.01,2013-09-01 06:00:00,
2013-08-31 22:05:00,40.9,34.6,30.04,SSE,160,0.0,0.0,78,0.00,,---,0.00,VWS V14.01,2013-09-01 06:05:00,
2013-08-31 22:10:00,40.9,34.6,30.04,SSE,160,0.0,0.0,78,0.00,,---,0.00,VWS V14.01,2013-09-01 06:10:00,
2013-08-31 22:15:00,40.9,34.9,30.04,SSE,160,0.0,0.0,79,0.00,,---,0.00,VWS V14.01,2013-09-01 06:15:00,
2013-08-31 22:20:00,40.9,34.9,30.03,SSE,160,0.0,0.0,79,0.00,,---,0.00,VWS V14.01,2013-09-01 06:20:00,
2013-08-31 22:25:00,41.0,35.0,30.03,SSE,160,0.0,0.0,79,0.00,,---,0.00,VWS V14.01,2013-09-01 06:25:00,
2013-08-31 22:30:00,41.0,35.3,30.03,SSE,160,0.0,0.0,80,0.00,,---,0.00,VWS V14.01,2013-09-01 06:30:00,
2013-08-31 22:35:00,41.0,35.0,30.04,SSE,160,0.0,0.0,79,0.00,,---,0.00,VWS V14.01,2013-09-01 06:35:00,
2013-08-31 22:40:00,40.9,34.9,30.04,SSE,160,0.0,0.0,79,0.00,,---,0.00,VWS V14.01,2013-09-01 06:40:00,
2013-08-31 22:45:00,40.9,34.9,30.04,SSE,160,0.0,0.0,79,0.00,,---,0.00,VWS V14.01,2013-09-01 06:45:00,
2013-08-31 22:50:00,40.9,35.2,30.03,SSE,160,0.0,0.0,80,0.00,,---,0.00,VWS V14.01,2013-09-01 06:50:00,
2013-08-31 22:55:00,40.9,35.2,30.03,SSE,160,0.0,0.0,80,0.00,,---,0.00,VWS V14.01,2013-09-01 06:55:00,
2013-08-31 23:00:00,40.9,35.2,30.03,SSE,160,0.0,0.0,80,0.00,,---,0.00,VWS V14.01,2013-09-01 07:00:00,
2013-08-31 23:05:00,40.9,34.9,30.03,SSE,160,0.0,0.0,79,0.00,,---,0.00,VWS V14.01,2013-09-01 07:05:00,
2013-08-31 23:10:00,40.9,34.9,30.03,SSE,160,0.0,1.0,79,0.00,,---,0.00,VWS V14.01,2013-09-01 07:10:00,
2013-08-31 23:15:00,40.9,34.6,30.03,SSE,160,0.0,1.0,78,0.00,,---,0.00,VWS V14.01,2013-09-01 07:15:00,
2013-08-31 23:20:00,40.9,34.6,30.03,SSE,160,0.0,1.0,78,0.00,,---,0.00,VWS V14.01,2013-09-01 07:20:00,
2013-08-31 23:25:00,40.8,34.5,30.03,SSE,160,0.0,1.0,78,0.00,,---,0.00,VWS V14.01,2013-09-01 07:25:00,
2013-08-31 23:30:00,40.7,34.4,30.03,SSE,160,2.0,2.0,78,0.00,,---,0.00,VWS V14.01,2013-09-01 07:30:00,
2013-08-31 23:35:00,40.7,34.7,30.03,SSE,160,0.0,4.0,79,0.00,,---,0.00,VWS V14.01,2013-09-01 07:35:00,
2013-08-31 23:40:00,40.7,34.4,30.03,SSE,160,1.0,4.0,78,0.00,,---,0.00,VWS V14.01,2013-09-01 07:40:00,
2013-08-31 23:45:00,40.6,34.3,30.03,SSE,160,0.0,4.0,78,0.00,,---,0.00,VWS V14.01,2013-09-01 07:45:00,
2013-08-31 23:50:00,40.5,34.2,30.03,SSE,160,0.0,4.0,78,0.00,,---,0.00,VWS V14.01,2013-09-01 07:50:00,
2013-08-31 23:55:00,40.4,33.8,30.03,SSE,160,0.0,4.0,77,0.00,,---,0.00,VWS V14.01,2013-09-01 07:55:00,